Retour au catalogue

COSMOS 1579 COOLANT

ActifLEO
NORAD 26513·DEBRIS·🇷🇺 Russia

Lancé Jun 29, 1984 depuis Baikonur Cosmodrome

Loading…

Prochains Passages (prochaines 24 heures)

TLE

PériméSource: Space-Track

Époque: Sep 2, 2026, 20:57 UTC

1 26513U 84069E   26245.87318350  .00000040  00000-0  10098-3 0  9993
2 26513  65.0548  54.7933 0054830 316.0999 114.0442 13.91569638669069

Suivez COSMOS 1579 COOLANT en temps réel avec AllMySat

Download on the App Store